RH
89 89 93 90 89 92 69 45 34 21 18 27 39 47 48 49 50 37 28 33 38 51 56 49 50 44 35 37 38 35 35 36 34 31 23 16 10 8 14 21 29 41 51 57 56 56 58 56 54 47 47 44 35 51 58 49 54 68 76 57 52 52
93 94 95 96 96 90 75 66 55 44 36 29 28 39 60 70 70 58 44 42 37 44 61 60 53 54 55 50 45 38 33 34 36 38 35 29 21 12 11 17 26 35 45 55 58 63 64 59 57 53 50 42 45 73 66 36 48 73 74 70 70 52
97 98 99 99 98 94 90 88 85 78 58 44 51 66 84 87 80 74 58 46 45 58 74 72 64 68 74 70 67 60 49 43 37 35 37 38 34 25 15 13 23 35 42 50 65 76 75 70 63 56 49 49 68 82 64 43 53 75 77 71 69 53
99 100 99 96 95 93 92 88 88 82 62 60 79 86 86 86 74 59 52 56 67 74 77 78 75 74 76 79 83 80 74 71 61 49 40 38 40 38 28 18 17 29 47 62 78 82 79 82 75 67 68 74 87 82 68 69 74 81 81 73 67 55
96 95 92 91 87 83 86 88 86 80 72 78 88 81 73 74 66 58 66 77 79 79 79 81 81 81 82 82 87 86 84 86 84 72 55 50 53 51 51 43 23 21 51 77 84 81 79 86 85 83 85 85 87 82 78 83 82 82 84 82 72 59
87 89 90 86 72 68 81 89 89 87 84 87 86 72 67 75 75 76 82 82 81 82 82 82 83 85 83 82 86 87 85 83 83 81 71 68 62 56 68 73 51 35 50 73 80 82 84 83 85 88 88 85 83 81 81 82 81 80 82 84 76 70
80 87 92 84 70 69 83 89 86 90 89 85 86 78 77 85 85 84 84 83 84 84 84 85 85 83 82 82 83 80 78 78 79 79 77 78 69 59 70 79 74 60 54 68 76 78 86 83 76 79 85 83 76 79 82 80 80 79 77 78 76 75
76 85 92 86 79 79 89 92 83 88 89 81 87 86 83 85 81 82 84 84 84 83 85 84 83 81 79 79 80 78 75 75 77 77 78 85 83 74 73 74 77 74 67 75 80 77 84 83 69 66 78 79 76 80 82 80 76 74 73 74 75 74
75 84 93 89 85 83 85 86 79 85 85 79 84 78 73 76 75 80 83 84 84 83 83 82 82 82 80 78 77 77 76 76 76 76 79 84 87 85 80 76 74 77 78 78 79 80 82 82 74 70 76 80 82 83 79 79 75 73 77 79 81 77
78 87 96 93 90 84 75 71 69 75 75 72 76 73 75 77 78 84 86 85 84 81 81 80 80 79 80 78 76 79 80 78 78 76 75 78 81 85 87 84 76 75 81 78 74 77 80 81 79 75 75 74 77 80 79 79 74 77 84 84 84 78
65 79 90 85 81 78 73 73 76 80 81 80 80 82 84 81 82 85 82 79 77 75 75 76 77 77 78 76 74 79 79 79 81 77 73 74 77 82 87 85 80 78 78 77 75 77 79 80 78 78 78 74 74 76 78 81 80 84 87 87 87 81
59 68 74 68 72 80 81 83 86 87 88 88 87 86 84 83 83 78 70 69 69 69 72 75 77 74 73 73 73 73 71 74 79 78 73 69 68 73 80 82 81 79 75 73 75 79 80 79 78 78 77 77 79 79 80 85 86 88 87 87 87 81
78 80 79 73 79 87 86 88 93 92 89 88 86 85 84 82 78 70 66 67 69 72 74 75 76 74 72 73 73 70 67 68 72 73 71 67 65 69 74 79 80 80 80 79 82 83 82 82 81 80 80 81 82 82 84 85 87 89 88 85 83 80
90 91 90 87 88 87 86 88 90 89 87 84 81 81 82 76 71 72 72 71 72 73 72 71 72 74 77 78 77 73 69 70 70 68 70 72 72 72 74 75 77 83 84 85 92 92 89 89 88 88 89 87 85 86 89 88 86 88 89 84 78 77
93 94 91 91 90 86 86 85 83 84 84 80 77 76 74 71 72 75 77 79 77 74 74 73 72 74 78 79 78 76 75 77 76 72 75 77 74 74 78 76 75 81 81 84 95 97 94 94 93 94 94 94 92 91 92 92 89 89 91 89 81 79
96 94 91 91 88 83 83 83 83 84 83 82 80 75 71 74 77 78 79 80 78 77 79 78 77 78 79 77 75 78 81 83 82 81 83 82 78 76 78 79 77 77 77 81 90 93 95 97 95 97 98 98 94 87 86 89 91 90 92 92 88 86
95 91 88 89 86 83 83 83 84 84 82 81 79 75 73 75 77 78 80 79 80 84 84 80 81 82 81 81 77 78 82 85 85 86 87 87 84 79 76 79 81 82 79 79 86 91 95 98 98 99 99 99 97 91 83 82 87 84 83 89 89 89
93 90 87 87 85 84 82 78 76 76 77 76 75 76 76 75 74 76 78 79 82 86 85 83 83 82 81 80 80 82 82 84 86 86 86 86 88 89 84 84 83 82 80 79 85 88 88 91 97 99 99 98 99 93 80 76 80 76 81 91 94 94
90 89 87 84 83 81 82 80 76 77 81 80 79 80 79 78 78 81 82 82 84 86 87 85 82 82 80 79 86 92 87 83 85 84 83 87 96 99 93 90 87 84 84 83 82 79 77 82 88 91 93 93 89 83 78 80 80 74 79 85 89 91
89 90 90 89 90 86 88 91 86 84 89 88 84 83 82 82 83 85 85 85 85 85 86 85 83 84 85 86 90 93 89 84 86 87 88 93 100 101 95 91 88 87 88 87 88 85 79 80 80 82 87 88 83 75 71 74 75 73 70 71 80 90
92 96 96 96 96 94 94 96 91 88 92 92 91 90 90 90 89 89 87 86 86 85 87 89 88 88 89 89 87 87 86 85 86 87 92 97 97 97 97 94 90 88 87 88 95 96 87 82 82 84 88 87 84 81 74 67 69 77 78 79 86 92
97 97 94 91 90 90 91 92 91 91 93 93 94 96 96 95 94 93 93 92 92 92 93 92 91 90 90 88 86 86 87 86 86 86 93 98 94 94 98 98 93 89 87 87 89 92 88 86 87 87 88 87 84 84 84 79 79 86 87 86 88 91
96 93 89 89 89 89 90 90 90 89 90 91 93 96 96 97 98 97 97 97 96 96 97 96 96 95 92 91 90 91 92 93 92 92 96 97 93 96 98 96 92 88 88 87 87 91 89 88 91 89 85 83 79 76 77 81 87 90 87 82 82 89
96 94 92 92 91 88 86 85 85 87 91 92 94 97 98 99 99 98 98 97 96 96 98 99 99 99 97 95 94 93 94 95 95 96 98 97 96 97 96 94 93 91 92 91 91 94 91 89 95 96 90 82 78 74 68 72 83 84 85 86 85 88
94 93 93 91 91 89 85 85 87 90 93 94 96 98 99 98 96 96 95 94 94 97 99 100 99 100 100 99 98 97 96 94 93 94 95 96 97 97 96 96 96 95 98 96 89 89 90 90 93 96 95 90 86 80 70 73 80 78 80 84 84 85
88 87 87 87 88 89 91 93 94 94 94 96 98 98 98 97 96 95 95 95 97 99 100 100 100 100 100 100 100 99 98 96 95 95 93 93 94 94 92 93 93 92 98 99 92 89 91 91 90 91 92 92 92 89 86 87 82 76 77 78 79 82
89 88 86 84 85 91 99 99 95 94 94 97 97 97 98 99 99 99 99 99 100 100 99 99 100 100 100 100 100 100 99 99 98 98 97 95 97 95 91 91 92 89 91 96 94 92 93 92 90 92 92 88 85 89 96 97 89 84 81 76 75 77
88 86 84 82 82 89 95 96 95 93 92 93 93 94 97 99 99 100 100 100 100 100 100 100 99 98 97 97 96 95 95 95 96 98 99 98 99 98 96 97 96 92 93 95 94 92 91 91 90 91 93 90 86 88 92 95 97 95 91 85 77 71
83 81 80 79 79 81 82 87 96 98 95 93 93 95 98 98 97 97 97 96 96 94 91 88 84 78 75 75 73 70 73 78 83 89 95 94 96 98 99 100 97 94 95 95 93 94 91 90 89 85 86 88 90 90 88 90 96 97 95 93 82 71
78 78 78 77 78 80 78 80 88 96 98 97 98 98 98 98 98 98 95 90 86 79 70 64 60 55 53 53 52 51 55 58 61 68 76 77 77 80 84 91 94 93 95 94 93 95 96 95 93 89 88 86 88 91 88 86 90 92 92 90 86 79
74 75 77 77 78 78 78 77 80 85 88 92 96 98 98 100 99 96 98 96 82 65 54 51 49 47 46 45 45 46 47 49 49 51 54 54 54 53 56 64 70 72 76 77 76 80 88 91 93 98 99 95 94 97 95 90 88 88 88 87 87 86
76 79 80 79 78 78 77 77 77 78 79 81 87 91 91 90 90 89 93 93 76 54 47 47 44 43 43 41 42 42 42 43 44 44 43 44 44 44 46 48 50 52 54 54 54 59 64 66 71 80 85 87 92 95 96 98 96 95 94 90 88 89
85 88 85 81 79 78 77 76 76 76 75 73 75 78 72 69 79 84 78 68 57 47 44 43 42 42 42 41 40 41 41 40 40 39 38 38 38 38 40 42 44 46 46 47 48 50 51 52 55 58 58 61 69 75 82 90 91 92 97 97 95 95
86 92 87 81 79 78 76 76 74 72 71 70 70 70 62 58 70 75 63 50 46 45 44 43 44 46 45 44 42 40 38 37 34 32 31 29 29 30 31 33 35 35 36 39 42 44 46 49 51 53 54 55 57 62 69 74 74 76 85 93 95 97
82 87 84 80 80 79 77 74 71 66 64 66 67 65 60 57 60 59 53 48 46 45 46 49 50 49 47 43 39 35 31 27 24 21 19 17 16 17 17 18 18 18 19 21 24 26 28 31 34 38 42 42 50 61 63 61 65 72 84 93 97 99
80 82 84 86 84 83 81 77 72 65 60 58 60 59 54 53 52 48 47 46 43 43 47 53 51 46 42 36 29 24 19 15 12 9 9 8 7 7 7 7 7 7 8 7 8 9 10 14 18 22 25 33 54 72 69 62 66 77 91 100 99 100
83 89 93 91 87 86 85 79 72 65 60 58 59 57 53 50 46 42 41 41 42 43 47 49 44 37 32 24 17 13 10 8 6 5 5 5 5 5 4 5 5 4 5 4 5 6 6 9 12 17 31 53 77 88 83 79 82 88 96 100 96 95
Wind_Speed
10 10 10 9 7 7 6 5 6 8 9 9 9 9 7 6 5 6 7 7 6 7 6 7 7 6 7 7 4 4 4 4 4 3 3 3 2 1 2 3 4 4 3 2 1 1 1 2 2 2 3 2 2 3 4 4 5 5 3 4 5 5
10 10 10 9 7 6 5 6 7 7 8 9 9 9 7 6 5 4 5 6 7 8 7 6 6 5 6 6 5 4 4 4 3 3 3 2 2 1 2 4 5 5 5 4 3 2 1 2 1 1 1 1 1 1 3 4 5 3 2 3 3 5
10 9 8 7 6 6 6 6 7 6 6 8 9 7 7 6 5 5 7 9 9 9 6 4 4 6 6 5 5 5 4 4 3 3 2 1 2 1 1 3 6 7 7 5 2 1 2 3 3 4 3 2 1 1 3 5 4 2 2 2 2 5
9 8 8 6 6 7 7 7 7 7 6 7 8 7 6 6 6 8 10 10 8 7 5 3 2 4 4 3 4 5 5 5 4 3 2 1 1 0 1 2 5 8 8 4 2 3 2 3 4 5 4 2 2 3 4 4 3 2 3 3 3 5
8 8 7 7 7 7 8 8 7 8 8 7 7 7 7 8 8 10 10 7 6 4 3 2 2 2 2 1 2 4 4 4 4 4 2 1 1 1 1 2 3 6 8 7 6 5 4 4 4 3 4 3 4 5 5 4 4 3 4 4 4 6
8 8 8 7 8 8 8 7 8 9 8 8 8 9 10 9 8 8 7 5 4 4 2 1 1 1 1 1 1 2 3 3 4 5 3 1 1 1 0 2 3 4 8 9 9 7 5 5 4 4 5 5 5 6 5 5 6 5 5 6 6 7
8 8 8 8 8 8 8 8 9 9 8 8 8 9 9 7 6 5 4 4 3 3 2 1 0 1 1 1 2 2 3 4 4 5 4 2 1 1 1 2 3 4 5 8 10 8 6 6 6 5 6 7 7 7 6 6 6 7 7 7 7 8
9 9 8 9 9 9 9 9 9 9 8 9 8 8 7 6 6 5 4 3 2 2 1 1 1 2 2 2 3 3 4 4 4 5 4 3 3 2 2 3 3 3 4 5 8 8 7 8 9 8 8 8 8 7 7 7 7 8 8 8 9 9
10 10 10 10 10 9 9 9 9 8 8 9 8 7 6 5 5 4 3 2 1 1 1 1 2 2 3 3 4 4 4 3 4 4 4 3 4 4 3 4 3 2 3 5 6 7 8 9 10 9 9 8 8 9 8 8 9 9 9 9 9 9
12 11 10 10 10 10 10 10 9 7 7 6 5 5 5 3 3 3 1 0 1 1 1 2 3 2 2 3 3 3 4 3 3 4 4 3 4 4 3 4 4 3 4 5 6 7 8 9 10 10 10 10 9 10 10 10 11 10 10 10 10 11
12 12 11 10 10 10 10 10 9 7 6 5 4 4 3 2 2 2 1 0 0 1 2 2 3 2 2 2 3 3 3 3 4 4 4 4 4 4 4 5 5 5 5 6 6 7 8 9 10 10 11 12 10 10 11 12 12 10 10 10 11 12
12 11 10 11 11 9 8 8 8 7 6 5 4 4 3 3 2 1 1 1 1 2 2 2 2 2 1 2 3 3 4 3 4 5 5 5 5 4 5 5 6 6 6 7 7 8 9 10 10 10 11 11 11 12 12 12 12 12 12 13 13 15
12 11 10 10 10 8 8 8 8 7 6 5 5 4 3 3 2 1 2 3 3 3 3 2 2 2 2 2 3 4 4 3 4 5 5 5 4 4 4 4 6 7 7 7 7 8 9 10 11 11 12 13 13 13 13 13 14 14 15 16 17 19
12 11 9 8 8 8 7 7 7 6 5 5 5 4 3 2 2 1 2 3 2 2 2 3 3 3 3 3 4 5 5 5 5 5 5 5 4 4 4 5 6 6 8 8 7 8 9 10 11 11 12 14 14 13 13 15 16 16 17 19 20 20
11 10 9 7 7 7 7 6 6 5 4 4 4 4 3 2 2 2 2 2 2 2 2 2 2 3 3 3 5 5 5 5 6 5 5 5 5 4 4 5 5 6 8 9 8 8 9 9 10 11 12 13 14 14 15 17 17 17 16 17 19 19
11 9 8 8 8 7 7 6 5 5 4 4 3 3 2 1 1 1 1 2 3 3 3 2 2 3 3 4 5 5 5 5 5 5 5 6 6 5 5 5 5 6 8 9 9 9 8 9 10 11 12 14 15 16 17 16 16 16 15 15 16 17
10 9 9 9 8 8 7 7 6 6 5 4 3 2 1 1 1 1 1 3 4 3 3 3 2 3 4 5 5 5 5 6 6 5 5 7 7 7 7 6 6 6 7 9 9 9 10 10 10 12 13 14 15 17 18 17 17 18 18 17 17 17
10 9 9 9 9 8 7 5 5 4 4 3 2 1 1 2 2 2 2 3 3 3 3 3 3 4 5 5 5 5 5 6 6 6 6 7 7 7 7 7 7 7 7 8 9 10 11 11 11 12 13 14 15 18 20 19 19 19 19 17 16 16
11 10 10 9 8 7 6 5 4 3 2 1 1 1 1 2 2 2 2 2 2 2 3 3 4 4 5 5 4 4 5 5 6 7 7 7 6 7 7 8 9 9 7 8 10 11 12 12 13 13 14 15 16 18 19 20 20 19 17 17 16 16
11 10 9 9 8 7 6 6 5 3 2 1 1 1 2 2 3 2 2 2 2 2 3 3 4 4 4 4 3 4 5 5 6 6 7 7 6 7 8 9 10 10 9 9 10 11 12 12 14 14 14 14 15 17 17 18 19 18 16 15 14 14
11 10 9 9 8 7 7 6 4 3 2 1 2 3 3 4 3 4 4 4 3 3 3 3 4 4 3 3 3 3 4 5 6 6 6 6 6 7 8 9 9 10 10 10 10 11 11 12 14 14 13 14 15 15 15 15 14 14 13 11 11 12
11 10 8 7 6 6 6 4 3 2 1 1 1 3 3 4 4 4 5 4 4 5 5 4 4 4 4 3 4 4 5 6 7 7 6 6 7 7 8 9 10 10 11 11 10 11 12 12 13 12 13 15 14 12 11 11 11 9 9 10 11 12
10 8 8 7 6 5 4 2 1 1 2 3 3 4 4 4 4 4 4 4 4 3 4 4 4 3 3 4 4 4 5 6 7 8 7 7 7 8 8 9 10 11 11 11 11 11 12 11 12 12 13 14 14 13 11 8 8 9 11 14 14 12
9 8 7 6 5 3 2 2 3 4 5 5 5 5 4 3 3 3 3 4 4 3 4 4 4 4 4 4 5 5 5 5 6 7 7 8 8 8 9 9 10 11 11 12 11 11 12 11 11 11 12 14 14 14 12 8 11 14 13 12 12 11
8 8 7 5 3 2 3 5 7 7 7 6 5 4 3 3 5 5 6 7 6 5 6 6 6 6 7 7 7 7 8 7 7 6 6 6 7 7 8 9 10 11 11 12 12 11 12 12 11 10 11 12 12 12 13 14 17 16 11 10 12 12
6 5 5 5 4 3 4 5 5 5 5 4 3 3 4 5 6 7 8 8 6 6 7 7 7 8 9 9 9 9 10 10 10 9 8 8 8 8 9 8 8 10 10 12 12 12 12 12 12 12 12 11 11 12 16 18 18 17 14 13 12 12
4 3 4 5 5 4 4 3 2 2 2 2 2 5 6 6 6 7 8 7 7 8 8 9 10 10 10 10 9 9 9 9 9 10 11 11 10 11 10 8 8 9 8 9 11 11 11 11 12 12 12 14 14 14 15 16 17 18 20 18 14 13
3 3 3 4 4 3 2 3 3 3 4 3 4 6 6 6 7 7 8 8 9 10 10 11 11 11 10 10 8 8 8 8 8 8 9 10 11 11 9 8 11 11 8 8 10 11 10 11 11 11 11 13 13 13 14 15 16 17 19 21 20 16
2 2 3 3 3 4 5 5 4 3 3 4 3 3 4 4 5 6 7 8 8 8 8 8 8 8 8 8 8 9 8 8 7 7 8 9 9 10 9 10 12 11 8 9 11 11 11 12 12 13 13 13 12 12 13 14 15 15 16 19 22 20
1 1 3 4 5 6 8 8 5 3 2 2 2 2 2 2 2 2 3 3 4 4 5 5 6 7 8 9 10 10 10 9 8 7 6 7 7 8 8 9 10 11 11 12 13 13 14 15 14 14 14 15 13 13 13 14 14 15 16 17 20 22
3 4 5 6 6 7 8 8 8 6 4 2 2 1 1 2 2 2 2 3 3 4 5 6 7 9 10 10 11 11 11 12 12 11 10 10 9 8 7 5 5 7 9 11 12 14 16 17 18 17 17 16 16 15 14 15 16 17 18 19 21 24
5 6 6 6 7 7 8 8 7 7 6 5 2 1 1 1 2 3 3 4 4 5 6 8 9 10 11 11 12 13 13 14 14 14 14 14 14 13 12 10 8 7 6 7 8 9 11 13 15 17 18 18 19 21 20 19 19 20 19 19 21 24
6 6 6 7 7 7 8 8 7 6 7 6 3 1 1 1 3 4 5 6 6 7 8 9 10 11 12 13 13 14 15 16 16 16 17 17 16 16 15 14 12 11 10 10 9 9 9 10 10 11 13 13 15 18 19 19 21 22 21 20 21 22
6 5 6 7 8 8 7 6 6 6 5 3 1 2 3 5 7 7 7 7 8 9 10 11 12 13 14 14 15 16 16 17 17 18 18 17 17 17 17 16 15 14 13 13 12 12 12 11 11 12 12 12 12 12 13 16 18 20 20 21 22 22
6 5 6 7 7 6 6 5 5 4 1 1 3 5 6 8 9 9 8 9 10 10 10 12 13 14 15 15 16 16 17 17 18 18 18 18 18 17 17 17 17 17 16 15 15 14 14 13 13 13 13 13 12 11 12 14 14 15 15 15 17 19
7 6 5 4 3 2 1 0 1 2 4 5 6 8 10 10 10 9 10 10 10 11 13 14 14 15 16 16 16 16 17 18 18 18 18 18 18 18 18 18 19 19 19 19 18 19 18 17 17 16 15 15 13 11 13 14 14 13 12 12 13 14
5 4 3 3 3 4 5 5 6 6 7 8 9 10 10 10 10 10 11 12 13 14 15 15 15 16 16 16 16 17 18 18 19 19 19 19 19 19 20 20 21 21 21 21 22 22 22 21 20 19 17 15 12 11 13 14 14 14 13 12 12 12
Wind_Direction
165 171 169 168 167 165 165 158 150 148 157 159 153 148 144 137 126 122 118 108 99 99 94 92 98 108 110 105 102 99 97 92 83 77 73 74 73 136 214 231 242 253 257 261 322 23 62 80 90 83 89 85 76 63 31 44 51 53 51 19 32 11
170 171 163 158 167 168 155 145 138 144 155 153 146 140 139 134 126 124 119 116 107 101 90 76 80 92 95 92 94 90 94 96 92 86 71 65 56 62 227 234 239 247 256 274 307 326 318 333 358 23 40 359 40 69 336 19 44 45 37 22 24 357
167 157 147 148 154 152 143 140 139 141 140 138 138 137 141 135 133 132 121 115 102 94 91 82 63 67 75 72 64 59 58 65 75 88 90 81 60 50 271 243 241 242 250 270 300 278 294 297 301 315 316 312 321 271 316 0 23 31 3 336 340 358
154 144 148 152 147 147 143 142 140 135 128 132 136 137 140 136 135 128 117 108 95 90 94 101 54 52 58 37 15 18 26 29 31 42 71 78 42 22 322 276 249 245 247 243 191 188 207 248 277 299 300 281 252 280 319 339 344 337 313 315 330 350
148 145 151 149 147 150 142 139 137 137 142 140 131 131 132 128 126 120 113 106 103 108 105 103 75 60 61 37 349 357 3 1 354 349 26 57 310 297 324 315 284 253 239 223 204 202 198 220 255 272 271 268 267 291 315 313 304 295 293 302 319 341
150 146 146 145 148 146 137 136 135 137 141 134 126 125 120 118 120 117 115 119 123 125 128 133 101 89 81 61 329 351 340 334 329 320 351 53 247 258 341 299 300 265 236 228 226 224 223 233 244 257 271 282 294 305 308 296 292 293 293 291 303 331
148 144 142 142 141 137 134 135 133 134 134 128 124 120 117 121 127 126 129 132 136 140 150 164 162 301 329 333 316 323 317 321 314 306 326 342 307 286 224 242 270 274 250 236 238 237 242 255 258 264 272 283 296 300 297 290 286 286 289 290 293 314
148 142 138 138 135 134 134 134 132 131 131 127 125 127 133 142 139 135 136 135 138 156 178 204 275 301 316 317 311 312 316 316 306 308 321 328 323 299 259 248 243 267 264 240 244 245 242 257 272 276 273 283 293 287 286 288 285 282 281 284 285 296
145 139 137 135 131 132 132 134 133 131 133 131 136 143 136 131 123 115 115 128 160 232 245 280 295 313 325 320 320 320 318 314 309 314 317 316 313 304 282 265 250 244 255 247 250 252 247 257 272 274 269 276 282 283 285 281 281 281 277 276 273 280
143 138 136 135 133 135 135 133 129 127 130 128 131 121 105 102 101 99 104 136 254 284 301 315 317 330 333 321 324 320 313 316 315 308 308 307 301 302 289 270 264 245 246 252 250 250 252 259 268 273 273 271 272 279 283 279 279 279 274 271 270 278
143 140 137 137 135 132 131 132 132 133 135 129 126 113 116 138 126 130 162 124 311 339 343 340 339 347 332 312 316 307 304 310 305 300 303 299 295 299 289 280 278 264 253 252 249 250 253 257 264 271 277 280 276 273 276 279 281 279 272 269 270 277
140 139 139 138 131 129 133 139 144 147 149 144 142 144 155 153 141 147 118 71 44 26 13 8 352 339 314 300 303 297 295 298 298 298 298 294 298 302 292 288 287 282 274 264 256 255 258 260 261 263 269 277 277 273 277 279 278 276 272 271 271 275
142 141 142 141 137 144 151 152 151 149 149 148 148 152 151 145 143 105 68 62 44 30 17 13 356 336 338 321 305 299 295 292 291 294 297 301 307 308 299 290 289 290 285 276 269 264 263 265 267 267 268 271 272 276 278 276 276 277 276 276 275 277
148 145 148 150 144 147 150 150 147 141 145 150 147 140 137 140 126 82 57 56 41 18 7 6 352 339 336 321 308 305 307 304 298 299 303 308 309 304 298 289 287 289 285 280 275 273 272 272 273 274 275 276 277 279 279 278 279 278 278 279 278 277
150 149 150 146 138 137 137 136 131 127 130 132 127 125 134 135 101 76 52 25 323 323 347 346 332 331 328 313 303 303 310 311 309 313 313 309 303 297 293 289 285 283 284 285 281 277 277 276 277 277 278 278 279 280 280 282 284 282 281 281 280 278
150 148 145 135 133 136 131 127 119 117 118 113 117 128 130 114 71 47 22 316 306 325 334 323 313 318 325 319 312 309 310 310 311 314 313 309 305 298 296 295 290 287 287 287 285 283 280 279 280 279 277 279 280 280 281 282 283 283 282 279 280 279
147 146 140 132 133 134 130 131 128 128 133 131 134 134 102 59 10 336 311 299 311 326 326 327 325 317 324 325 320 314 308 310 313 311 303 299 300 302 304 301 291 287 289 291 291 287 282 281 282 281 281 282 282 281 281 281 281 281 282 282 282 282
141 142 138 136 136 131 127 129 123 122 129 125 110 69 17 350 340 325 314 313 323 337 342 346 348 334 333 334 330 323 313 310 310 307 300 295 297 299 302 303 295 288 289 293 293 288 286 285 283 281 280 280 280 283 284 283 280 280 282 283 281 280
139 138 136 136 133 126 123 116 110 114 110 97 57 33 2 349 352 344 339 340 344 356 357 350 350 350 351 353 347 328 317 311 309 309 308 304 297 291 290 293 298 299 296 291 290 291 293 291 287 285 283 280 281 286 288 285 283 283 281 279 278 278
135 131 129 127 124 122 119 117 128 137 117 86 35 20 12 12 12 9 5 7 7 2 1 357 359 11 18 7 348 325 318 315 313 311 313 313 303 294 290 288 295 302 300 294 292 292 294 294 294 293 290 286 286 289 291 288 285 286 286 281 279 279
127 123 125 126 126 125 120 117 122 120 105 89 48 36 32 29 28 25 23 26 30 32 31 26 25 32 31 10 345 331 325 323 322 319 320 319 307 295 291 291 294 298 300 299 296 294 295 298 299 299 298 295 293 292 297 302 299 291 290 286 280 279
124 126 128 127 128 127 126 123 122 127 137 119 46 44 34 23 26 27 26 33 43 53 55 52 50 46 36 20 3 353 342 337 336 333 329 320 310 305 301 299 295 295 298 298 297 297 299 300 299 302 303 300 300 298 295 304 307 295 290 292 287 282
125 130 130 125 123 117 117 118 99 30 26 29 30 34 30 24 29 28 21 19 19 33 41 33 29 21 12 4 349 345 347 343 338 334 329 319 315 314 309 306 302 300 301 300 299 299 298 298 299 304 303 298 303 307 297 289 297 298 297 298 294 285
125 126 123 118 120 109 83 55 29 29 30 27 27 28 32 32 21 12 349 332 325 331 349 347 343 337 331 321 309 307 314 319 318 319 324 321 318 319 314 312 308 304 304 304 303 301 298 298 301 306 307 307 307 304 301 305 311 308 301 296 296 292
122 119 112 101 99 64 24 23 25 30 21 12 21 22 6 340 325 323 318 313 315 325 328 324 321 316 310 306 304 305 305 301 297 295 295 297 300 305 306 310 312 310 310 307 303 301 300 299 301 300 299 308 311 303 304 314 316 311 305 300 298 293
116 117 113 96 77 51 40 36 32 31 10 1 14 347 328 320 316 318 318 316 319 320 313 307 306 305 304 307 312 316 319 320 319 314 306 296 287 282 284 287 296 304 305 303 302 300 300 302 304 301 296 297 295 293 300 308 311 308 307 306 299 292
118 125 110 86 69 57 62 66 50 15 348 343 325 316 316 315 314 314 316 314 308 304 299 296 297 298 300 304 306 309 314 315 314 312 309 308 304 302 305 298 290 295 296 296 299 296 297 302 303 301 300 300 296 290 292 295 299 302 305 306 302 297
125 118 86 69 57 42 26 23 3 332 313 308 310 310 309 309 309 308 307 303 298 296 294 294 298 301 305 305 305 305 303 298 294 292 294 300 304 307 316 311 302 306 302 294 296 293 293 298 301 302 301 303 302 296 292 291 292 294 298 301 303 302
129 100 56 33 8 332 323 332 347 350 323 316 319 319 315 314 314 309 304 302 301 302 302 305 311 320 327 328 330 330 326 319 311 300 295 299 301 301 302 299 300 305 299 289 291 290 289 287 289 295 296 298 302 300 297 297 296 296 295 297 299 302
128 28 9 357 348 333 328 327 332 358 12 357 7 1 353 1 352 337 331 335 334 333 337 345 354 1 4 2 359 360 359 358 356 348 336 328 321 313 303 293 291 291 287 284 282 282 285 284 280 281 281 283 291 299 303 304 304 303 300 297 298 301
12 10 359 352 347 340 335 327 324 328 330 344 15 28 31 51 48 48 61 49 28 23 27 31 32 30 28 25 24 24 25 26 27 26 25 21 17 14 6 347 321 302 292 289 286 283 282 280 277 277 275 274 278 285 295 302 302 303 303 300 300 301
20 18 6 359 349 338 331 324 321 320 314 319 346 35 32 53 77 75 81 80 65 57 57 54 52 49 44 40 36 34 33 32 32 30 29 29 28 28 28 26 20 9 350 332 321 309 298 291 285 281 279 279 278 278 283 290 291 293 299 301 302 302
31 31 10 355 344 332 325 322 318 311 307 312 331 12 64 115 100 88 93 96 86 74 68 61 56 51 45 39 35 34 32 32 32 30 30 29 29 28 28 27 26 23 20 14 7 359 348 339 328 315 307 301 294 288 288 292 289 284 286 291 298 303
23 37 9 342 329 319 314 313 306 300 303 317 7 77 109 111 103 98 99 95 85 76 68 60 54 48 43 39 37 35 34 35 34 33 32 31 31 30 29 28 27 25 24 23 21 16 10 5 357 350 343 334 326 315 303 299 294 288 287 289 293 301
5 10 347 328 316 306 299 296 289 284 276 131 109 105 107 104 99 96 92 86 82 77 69 62 56 51 48 44 41 39 37 36 35 33 32 30 30 31 29 28 26 24 23 23 24 21 18 17 12 8 5 357 348 341 332 324 314 304 304 306 305 306
351 341 335 332 328 324 321 81 136 129 123 122 113 109 107 100 96 93 88 84 82 77 72 67 61 57 54 49 44 42 38 35 33 31 29 29 29 29 28 28 26 25 24 22 22 21 19 17 13 11 10 7 3 356 352 351 345 334 330 330 320 311
358 11 42 65 78 91 102 105 106 110 112 112 107 104 101 94 92 91 87 84 80 77 75 71 66 61 56 51 46 43 40 37 34 32 31 30 30 30 30 30 29 28 27 27 26 25 23 21 18 16 12 7 5 360 355 355 354 350 345 338 324 307